Reflectivity
3 1 -9 21 2 26 24 27 12 29 28 -20 -11 15 19 15 12 6 -5 18 -17 -6 21 4 19 -5 -19 12 -16 11 -20 -20 -20 -20 6 -20 -20 -20
4 7 13 4 -5 21 24 20 30 39 24 27 2 26 17 9 -18 14 20 26 17 23 15 -9 -4 -2 -17 -8 -6 9 -20 -20 -20 -20 -20 -20 -20 -7
30 13 0 2 13 23 9 9 23 35 24 -7 -20 18 -3 -4 -6 -6 -20 -10 18 24 10 27 25 33 -8 -5 -16 10 14 -13 -20 -20 -20 -20 -18 -3
29 16 30 17 33 30 32 22 34 26 24 7 -20 24 -6 -20 -20 12 -1 -20 19 23 34 23 9 12 12 -20 -14 -5 -0 -16 -19 -20 -20 -20 -20 -0
35 13 -3 25 26 25 26 17 28 3 18 17 11 14 -19 -19 8 4 24 -2 3 27 21 10 9 31 10 2 8 16 15 -20 -17 -19 -11 -20 -15 -20
18 11 4 4 14 21 13 18 16 18 -2 9 12 9 4 18 -16 5 7 -20 -10 7 9 18 17 10 28 17 10 10 19 36 24 10 -18 -17 -20 -5
27 6 17 16 21 14 13 5 11 -4 3 20 10 15 26 24 13 -17 15 19 16 11 12 8 20 8 14 13 22 21 27 18 24 -1 7 -4 -5 -14
-4 24 25 28 28 8 10 15 9 9 4 27 2 -19 -20 -19 -6 18 -14 4 20 -10 -11 8 7 13 -3 20 7 17 20 -0 -20 -20 -20 -5 -6 -20
-20 -20 -20 -20 1 -20 10 7 8 12 18 -10 -6 -18 -20 7 2 -18 -20 -15 12 9 11 11 17 13 12 12 21 13 -19 -20 -20 -16 -13 -4 -8 -18
-20 -20 -20 -20 -18 -9 -20 -20 -20 -20 -20 -3 6 17 14 -1 -18 -20 -20 -16 4 8 11 -4 -3 -1 16 31 20 -20 -20 -20 -20 -20 -2 -5 -20 -20
-20 -20 -20 -20 -20 -3 -20 -20 -20 -1 -19 7 10 6 7 7 -9 -3 -18 -20 -15 -9 -10 -17 -16 8 25 7 -20 -20 -20 -20 -20 1 10 4 -20 -13
-19 -20 4 6 -20 -6 -20 -20 -9 9 -19 -20 -5 -12 6 -2 -4 -19 -16 -20 -9 -14 -10 13 22 16 9 3 -20 -20 -20 -20 -13 10 -2 -5 -13 -20
-20 -20 -20 -8 -20 -1 1 -20 13 -12 -1 0 -20 -20 -20 -20 -20 -20 -19 -16 -16 4 12 16 15 6 -19 -4 -20 -20 -0 -8 0 -1 -11 -6 -20 -6
-20 -20 -20 -18 -20 5 8 15 16 12 -20 -20 -20 -20 -20 -20 -20 -19 -2 19 11 6 26 24 7 -5 -16 -20 -17 -6 -2 0 -0 1 5 -14 -20 -13
-20 -20 5 5 -20 -20 3 9 13 -3 -20 -20 -20 -20 -20 -20 -20 -11 5 -15 6 14 15 -8 -19 -11 -5 6 -18 -8 -5 -0 4 3 6 2 5 -1
-2 -7 8 -0 -20 -18 -20 -6 -3 -19 -15 -20 -20 -20 -20 -20 -20 -20 -17 -6 -5 -3 -7 8 -1 -12 -10 -19 -2 0 -20 -14 -10 6 5 -3 4 4
8 -20 -20 -20 -20 -20 -20 -20 -10 -2 0 -17 -20 -20 -20 -20 -20 -11 -5 -12 -18 -17 -2 -8 -4 5 9 4 9 -7 -6 -6 -19 -2 2 5 6 8
3 -20 -20 -20 -20 -20 -20 -20 -15 20 12 18 18 -20 -20 -20 -12 0 -11 -20 -20 -18 2 4 8 6 6 11 4 -3 -3 -11 -9 0 5 -6 6 10
-3 -20 -20 -20 -20 -20 -20 -20 -14 5 24 30 21 11 -4 -10 15 4 -15 -20 -20 -20 7 12 19 17 4 -18 -2 -20 -3 -5 -10 -4 1 4 6 6
-11 -18 -18 -20 -20 -20 -20 -20 -15 -12 2 21 28 25 19 20 8 -5 -8 -20 -11 4 14 15 15 12 8 4 -4 4 -20 -15 -0 -4 4 2 0 -20
-20 -20 -20 -20 -20 -20 -20 -20 -20 2 3 20 24 29 33 28 18 17 13 -7 -20 -8 6 11 9 1 -12 -17 1 6 5 -20 -13 -4 -1 -2 -1 -2
-16 -20 -20 -20 -20 -20 -20 -20 -11 21 21 31 29 33 37 36 25 21 17 13 -2 -13 -2 -2 3 7 -2 2 -10 3 5 6 -4 -20 -20 -20 -0 -0
-6 -11 -4 -15 -20 -20 -20 -20 -9 7 4 27 31 32 33 23 25 24 19 19 2 -18 -3 6 10 12 12 -20 -13 0 3 1 1 2 6 -20 -20 -20
Wind_Speed
12 13 11 10 8 10 10 10 9 6 13 8 7 7 5 6 8 10 11 16 21 21 21 20 15 17 11 8 7 7 7 5 9 14 17 18 20 22
5 7 7 8 7 8 9 9 9 13 15 11 8 6 6 5 6 9 11 17 20 17 9 11 12 9 7 6 3 5 2 5 11 16 19 21 23 22
8 8 10 11 10 7 9 8 10 12 15 13 5 5 5 6 6 7 6 8 8 11 12 12 10 9 6 1 1 2 2 6 9 15 17 21 21 24
19 13 16 5 12 16 13 11 13 13 11 17 6 5 4 7 7 9 6 4 4 10 12 9 7 6 3 4 3 3 6 7 10 17 19 20 22 24
13 11 9 11 19 14 11 10 10 10 10 9 5 1 2 4 4 3 4 6 5 13 10 11 10 11 6 6 4 7 8 11 13 15 18 20 21 23
10 11 13 14 15 12 11 12 10 9 8 7 2 3 2 2 4 4 3 3 6 6 8 9 9 10 8 6 5 6 5 10 15 18 18 18 21 23
6 6 6 9 11 10 7 9 10 8 6 6 3 2 3 3 7 5 4 6 3 3 6 4 6 5 3 6 6 7 10 10 14 18 19 21 21 23
6 6 6 10 7 8 9 10 6 8 10 7 4 5 6 5 5 7 8 5 4 3 4 3 3 3 4 4 7 7 8 13 14 15 18 19 22 23
5 6 6 4 7 7 7 6 7 9 10 9 7 9 6 10 9 9 9 6 4 6 5 3 2 4 3 4 5 9 13 13 14 16 18 19 22 23
6 7 7 6 8 7 7 5 1 1 4 3 7 6 5 10 11 8 9 8 7 5 1 4 3 3 3 4 8 13 11 13 14 16 18 20 21 21
6 7 7 7 9 7 6 4 2 3 5 5 6 8 10 12 13 11 8 11 4 2 2 3 4 4 2 2 4 12 12 14 15 17 17 20 23 19
7 6 8 11 9 8 7 8 7 5 3 5 6 10 10 9 12 8 11 11 7 3 4 3 4 4 4 2 5 7 7 14 14 15 18 21 22 10
6 5 4 10 13 9 9 7 7 9 4 6 6 5 7 7 5 5 5 6 4 4 6 3 4 4 4 6 3 5 7 7 7 8 16 19 21 20
8 5 5 9 9 8 7 6 15 10 7 7 7 6 7 7 6 8 10 10 8 8 7 2 4 5 6 6 4 2 6 7 7 8 8 13 19 19
7 6 7 8 6 4 8 13 10 6 7 8 8 6 5 8 11 11 14 16 15 11 7 7 8 7 5 6 6 2 2 8 7 8 8 11 11 10
6 3 2 3 4 3 5 7 1 4 6 7 9 8 8 7 9 8 11 10 12 10 13 11 10 10 10 8 8 7 6 5 6 7 8 9 9 10
3 3 3 3 3 3 3 3 3 3 4 6 9 10 10 10 9 9 8 8 12 11 11 9 12 12 10 9 9 8 8 8 7 6 8 9 10 10
4 4 4 4 5 6 5 4 3 5 4 5 7 9 11 11 11 8 10 12 14 12 11 10 10 10 9 12 12 8 8 8 7 7 7 9 10 10
7 5 5 6 5 5 6 6 6 4 8 6 7 9 9 10 13 11 11 12 12 13 12 9 7 6 9 9 5 11 8 8 8 9 8 9 10 10
7 6 6 6 6 7 7 7 6 7 8 8 7 7 9 10 10 11 12 13 13 12 11 7 7 7 10 9 8 7 4 8 8 9 9 9 8 14
9 7 7 6 6 6 6 6 8 8 7 8 9 8 8 8 9 9 11 13 15 11 11 9 7 12 10 10 10 10 9 13 7 8 8 8 9 9
8 8 7 6 6 7 7 7 7 7 8 7 8 9 8 8 9 9 10 12 11 10 11 10 12 10 9 11 12 13 10 10 16 22 19 11 3 5
8 8 7 7 7 7 7 8 8 8 9 9 10 10 11 10 9 9 9 10 10 12 12 11 9 9 10 10 12 9 12 10 9 11 12 22 22 20
Wind_Direction
235 235 232 243 230 235 236 236 243 269 264 248 238 203 212 197 204 196 204 180 164 174 185 195 184 192 196 220 260 275 286 297 314 312 316 318 317 318
224 237 230 244 241 233 235 237 236 242 252 255 243 228 183 197 195 204 202 177 185 181 164 168 200 186 175 225 217 268 245 321 326 322 320 324 320 318
232 213 223 232 238 230 233 233 242 237 250 252 254 222 194 190 178 211 182 194 178 168 171 180 164 156 173 243 332 128 338 339 329 313 316 320 321 319
240 216 229 225 265 249 239 233 232 235 236 252 212 211 191 197 180 186 176 150 148 169 141 130 138 120 113 119 119 29 350 348 334 322 325 327 324 319
234 227 235 228 239 235 242 239 238 233 236 243 227 114 92 146 146 120 128 119 117 130 134 137 134 117 117 87 71 65 16 345 330 324 329 326 322 317
245 232 234 232 231 236 232 232 238 243 231 237 166 143 139 135 143 155 143 125 128 127 110 122 118 106 114 91 104 93 32 342 333 331 333 329 324 318
287 281 258 251 252 245 238 233 225 220 216 222 165 133 172 177 200 154 129 132 112 136 130 134 139 145 115 119 85 33 15 344 345 338 337 332 326 320
288 284 278 280 277 273 269 252 240 238 208 207 195 193 189 180 136 163 139 154 181 230 134 114 130 113 114 113 59 28 355 360 353 347 340 334 327 325
286 295 296 285 275 269 268 250 241 248 239 206 195 202 178 183 156 153 170 166 151 145 135 124 147 120 102 103 45 33 17 8 1 352 343 343 335 336
250 253 251 266 271 269 262 238 187 351 298 243 231 202 186 165 167 167 155 110 83 115 184 123 145 105 150 112 46 31 28 18 9 2 352 349 345 344
270 271 275 271 264 267 238 185 207 303 29 89 94 121 137 142 138 123 149 142 124 156 215 106 144 122 151 89 39 37 39 15 16 11 3 4 359 349
297 299 289 280 278 264 212 177 189 205 189 89 72 72 95 123 149 161 158 155 125 131 183 119 144 158 132 73 45 39 32 22 21 18 16 15 14 4
267 270 261 283 295 284 236 189 201 151 130 107 112 118 106 95 85 72 90 138 123 99 153 138 148 145 95 126 88 42 36 26 17 14 19 21 25 28
245 248 257 261 267 268 223 174 148 142 142 140 136 138 131 121 109 97 83 77 61 92 125 146 122 148 139 124 120 86 61 38 24 25 18 25 25 23
241 246 264 270 258 184 170 153 154 160 154 152 149 139 127 117 108 100 91 89 78 70 57 73 109 119 108 114 130 151 125 42 26 38 34 35 23 15
244 229 221 155 99 115 140 156 140 192 178 160 144 128 124 121 112 115 110 110 99 84 72 78 93 109 106 98 108 98 72 72 37 41 49 48 39 34
191 183 189 164 132 139 177 162 142 149 164 146 151 140 133 126 119 127 125 118 111 111 101 88 82 81 81 105 97 89 97 91 73 69 67 63 51 43
213 207 187 179 181 166 180 187 147 152 139 157 167 146 140 135 134 131 139 132 123 123 116 122 120 116 106 63 44 108 94 91 87 76 78 77 71 57
221 206 199 189 189 181 176 181 189 158 140 169 172 149 145 139 141 143 145 131 124 129 129 138 144 145 130 108 93 31 105 104 100 88 82 78 77 60
210 208 204 194 186 184 183 174 163 160 167 154 160 157 151 146 146 145 147 141 134 133 127 140 135 148 138 126 115 89 45 108 107 108 104 97 100 115
207 208 196 188 190 178 175 168 168 170 168 158 147 150 149 146 138 144 146 145 135 135 124 119 115 107 111 120 110 104 81 50 67 108 106 101 93 84
199 196 183 181 183 172 167 159 158 153 147 154 147 133 133 134 128 134 136 137 135 122 106 114 126 128 133 124 118 114 110 95 75 68 60 50 66 93
187 184 176 179 177 168 159 157 162 158 149 144 139 130 125 123 116 120 121 126 129 121 123 126 123 123 123 122 120 120 120 115 107 89 72 71 80 83